Printer-friendly version

IAU Minor Planet Center

Minor Planet Center

MPEC 2006-K30 : 2006 KT1

The following Minor Planet Electronic Circular may be linked-to from your own Web pages, but must not otherwise be redistributed electronically.


Read MPEC 2006-K29 Read MPEC 2006-K31


M.P.E.C. 2006-K30                                Issued 2006 May 22, 17:12 UT

     The Minor Planet Electronic Circulars contain information on unusual
         minor planets and routine data on comets.  They are published
   on behalf of Commission 20 of the International Astronomical Union by the
          Minor Planet Center, Smithsonian Astrophysical Observatory,
                          Cambridge, MA 02138, U.S.A.

                  Supported in part by the Brinson Foundation
                  Supported in part by the TABASGO Foundation
             Prepared using the Tamkin Foundation Computer Network

                              MPC@CFA.HARVARD.EDU
          URL http://cfa-www.harvard.edu/iau/mpc.html  ISSN 1523-6714

                                   2006 KT1

Observations:
     K06K01T* C2006 05 21.27202 13 59 44.23 +05 29 11.5          19.0 V EK030703
     K06K01T  C2006 05 21.28057 13 59 43.69 +05 29 13.3          20.1 V EK030703
     K06K01T  C2006 05 21.28911 13 59 43.11 +05 29 14.6          19.3 V EK030703
     K06K01T  C2006 05 21.29764 13 59 42.50 +05 29 16.5          19.6 V EK030703
     K06K01T  C2006 05 21.30521 13 59 42.03 +05 29 18.1          19.0 V EK030703
     K06K01T  C2006 05 21.31376 13 59 41.53 +05 29 19.3          19.5 V EK030703
     K06K01T  C2006 05 21.32222 13 59 40.92 +05 29 20.4          18.9 V EK030703
     K06K01T  C2006 05 21.33068 13 59 40.45 +05 29 22.1          19.4 V EK030703
     K06K01T  C2006 05 21.87019 13 59 08.61 +05 30 53.4          19.6 R EK030185
     K06K01T FC2006 05 21.87511 13 59 08.28 +05 30 51.7                 EK030185
     K06K01T  C2006 05 21.87838 13 59 08.09 +05 30 54.4          19.3 R EK030185
     K06K01T  C2006 05 21.88482 13 59 07.59 +05 30 55.7          19.5 V EK030198
     K06K01T  C2006 05 21.88895 13 59 07.34 +05 30 56.3          19.5 V EK030198
     K06K01T  C2006 05 21.89130 13 59 07.20 +05 30 56.6          19.5 V EK030198
     K06K01T  C2006 05 21.89307 13 59 07.09 +05 30 56.9          19.5 V EK030198
     K06K01T  C2006 05 22.03440 13 58 58.74 +05 31 28.9          19.5 R EK030I77
     K06K01T  C2006 05 22.04244 13 58 58.26 +05 31 29.7          19.1 R EK030I77
     K06K01T  C2006 05 22.05049 13 58 57.81 +05 31 30.5          19.1 R EK030I77
     K06K01T  C2006 05 22.10936 13 58 54.41 +05 31 32.8          19.4 R EK030734
     K06K01T  C2006 05 22.11325 13 58 54.18 +05 31 33.7          19.5 R EK030734
     K06K01T  C2006 05 22.11715 13 58 53.93 +05 31 34.7          19.6 R EK030734
     K06K01T  C2006 05 22.11811 13 58 53.99 +05 31 34.1                 EK030H36
     K06K01T  C2006 05 22.12105 13 58 53.70 +05 31 35.0          19.5 R EK030734
     K06K01T  C2006 05 22.15969 13 58 51.28 +05 31 41.7          19.8 R EK030H36
     K06K01T  C2006 05 22.28079 13 58 43.96 +05 32 01.3          19.3 V EK030G96
     K06K01T  C2006 05 22.28663 13 58 43.60 +05 32 02.2          19.4 V EK030G96
     K06K01T  C2006 05 22.29252 13 58 43.24 +05 32 03.2          19.3 V EK030G96
     K06K01T  C2006 05 22.29839 13 58 42.88 +05 32 04.1          19.3 V EK030G96
     K06K01T 3C2006 05 22.39928 13 58 36.99 +05 32 21.6          19.6 R EK030F65
     K06K01T 3C2006 05 22.40076 13 58 36.91 +05 32 21.9          19.4 R EK030F65
     K06K01T 3C2006 05 22.40200 13 58 36.83 +05 32 22.0          19.4 R EK030F65
     K06K01T  C2006 05 22.62510 13 58 23.55 +05 33 02.1          19.5 V EK030E12
     K06K01T  C2006 05 22.62596 13 58 23.52 +05 33 02.7          19.3 V EK030E12
     K06K01T  C2006 05 22.62684 13 58 23.48 +05 33 02.7          19.4 V EK030E12
     K06K01T  C2006 05 22.62772 13 58 23.51 +05 33 02.7          19.3 V EK030E12
     K06K01T  C2006 05 22.62861 13 58 23.36 +05 33 02.5          19.4 V EK030E12

Observer details:
185 Vicques.  Observer M. Ory.  0.61-m f/3.88 reflector + CCD.
198 Wildberg.  Observer R. Apitzsch.  0.35-m f/4.2 reflector + CCD.
703 Catalina Sky Survey.  Observer E. C. Beshore.  Measurers E. C. Beshore,
    E. J. Christensen, G. J. Garradd, A. R. Gibbs, A. D. Grauer, R. E. Hill,
    R. A. Kowalski, S. M. Larson, R. H. McNaught.  0.68-m Schmidt + CCD.
734 Farpoint Observatory.  Observer D. Tibbets.  0.7-m reflector + CCD.
E12 Siding Spring Survey.  Observer R. H. McNaught.  Measurers E. C. Beshore,
    E. J. Christensen, G. J. Garradd, A. R. Gibbs, A. D. Grauer, R. E. Hill,
    R. A. Kowalski, S. M. Larson, R. H. McNaught.  0.5-m Uppsala Schmidt + CCD.
F65 Haleakala-Faulkes Telescope North.  Observers A. Aziz, J. L. D. Wingrad,
    F. P. Keeling, C. A. Sawyer, C. J. Barry, A. S. E. Allen, A. D. Taylor.
    2.0-m Ritchey-Chretien + CCD.
G96 Mt. Lemmon Survey.  Observer R. Hill.  Measurers E. C. Beshore,
    E. J. Christensen, G. J. Garradd, A. R. Gibbs, A. D. Grauer, R. E. Hill,
    R. A. Kowalski, S. M. Larson, R. H. McNaught.  1.5-m reflector + CCD.
H36 Sandlot Observatory, Scranton.  Observer G. Hug.  0.30-m
    Schmidt-Cassegrain + CCD.
I77 CEAMIG-REA Observatory, Belo Horizonte.  Observers C. Jacques, E. Pimentel.
    Measurer C. Jacques.  0.30-m f/3.0 Schmidt-Cassegrain + CCD.

Orbital elements:
2006 KT1                                                 Earth MOID = 0.1872 AU
Epoch 2006 Mar. 6.0 TT = JDT 2453800.5                  MPC
M 322.40310              (2000.0)            P               Q
n   0.16740015     Peri.  185.62225     +0.72206042     +0.68099771
a   3.2606098      Node   130.68274     -0.62831031     +0.71927669
e   0.6316652      Incl.    9.25384     -0.28957712     +0.13741601
P   5.89           H   16.8           G   0.15           U   9
Residuals in seconds of arc
060521 703  1.2+  0.4-    060521 198  0.2-  0.1+    060522 G96  0.2-  0.1-
060521 703  1.2+  0.2-    060521 198  0.1-  0.1+    060522 G96  0.2-  0.1-
060521 703  0.5+  0.4-    060521 198  0.1-  0.1+    060522 G96  0.2-  0.0
060521 703  0.6-  0.0     060522 I77  0.3+  0.4+    060522 G96  0.2-  0.0
060521 703  0.5-  0.3+    060522 I77  0.7+  0.1-    060522 F65  0.1-  0.2+
060521 703  0.0   0.0     060522 I77  1.4+  0.6-    060522 F65  0.1+  0.2+
060521 703  1.2-  0.4-    060522 734  0.4-  0.4-    060522 F65  0.0   0.1+
060521 703  0.4-  0.1-    060522 734  0.3-  0.1-    060522 E12  0.3-  0.4-
060521 185  1.4+  0.2+    060522 734  0.4-  0.2+    060522 E12  0.0   0.0
060521 185 (1.0+  2.3-)   060522 H36  1.4+  0.5-    060522 E12  0.2+  0.1-
060521 185  1.2+  0.1-    060522 734  0.3-  0.1-    060522 E12  1.4+  0.2-
060521 198  0.2-  0.2+    060522 H36  0.9-  0.3+    060522 E12  0.0   0.6-

Ephemeris:
2006 KT1                 a,e,i = 3.26, 0.63, 9                   q = 1.2010
Date    TT    R. A. (2000) Decl.     Delta      r     Elong.  Phase     V
2006 05 15    14 06.35   +05 04.7    1.171    2.104   149.1    14.3    19.6
2006 05 25    13 56.14   +05 38.1    1.153    2.026   138.5    19.3    19.6
2006 06 04    13 48.28   +05 38.9    1.152    1.949   128.1    24.2    19.7
2006 06 14    13 43.66   +05 07.2    1.162    1.871   118.3    28.5    19.7
2006 06 24    13 42.72   +04 05.5    1.179    1.794   109.4    32.3    19.8
2006 07 04    13 45.59   +02 37.2    1.198    1.718   101.4    35.5    19.8
2006 07 14    13 52.18   +00 46.1    1.216    1.643    94.3    38.1    19.8
2006 07 24    14 02.33   -01 24.6    1.231    1.570    88.1    40.3    19.8
2006 08 03    14 15.94   -03 52.3    1.242    1.501    82.7    42.1    19.8
2006 08 13    14 32.90   -06 34.0    1.247    1.435    78.1    43.7    19.7
2006 08 23    14 53.24   -09 26.9    1.247    1.374    74.2    45.1    19.7
2006 09 02    15 17.08   -12 27.3    1.242    1.321    71.0    46.2    19.6
2006 09 12    15 44.57   -15 29.8    1.235    1.275    68.5    47.2    19.6
2006 09 22    16 15.90   -18 27.3    1.227    1.239    66.6    48.0    19.5
2006 10 02    16 51.21   -21 10.5    1.221    1.215    65.4    48.5    19.5
2006 10 12    17 30.37   -23 27.5    1.220    1.203    64.8    48.7    19.5
2006 10 22    18 12.93   -25 05.8    1.227    1.203    64.6    48.4    19.5
2006 11 01    18 57.91   -25 54.1    1.245    1.216    64.7    47.6    19.5
2006 11 11    19 43.84   -25 45.9    1.277    1.242    65.0    46.3    19.6
2006 11 21    20 29.15   -24 41.6    1.324    1.278    65.3    44.6    19.7
2006 12 01    21 12.47   -22 48.3    1.388    1.325    65.3    42.6    19.8
2006 12 11    21 52.91   -20 17.9    1.468    1.379    65.0    40.3    19.9
2006 12 21    22 30.12   -17 23.3    1.564    1.440    64.1    37.9    20.1
2006 12 31    23 04.21   -14 16.1    1.674    1.506    62.8    35.5    20.3
2007 01 10    23 35.46   -11 05.5    1.797    1.576    61.0    33.1    20.4

Kyle E. Smalley              (C) Copyright 2006 MPC           M.P.E.C. 2006-K30

Read MPEC 2006-K29 Read MPEC 2006-K31


Our Web policy. Index to the CBAT/MPC/ICQ pages.


Valid HTML 4.01!